Location: Łódź
(51.7951°N, 19.4477°E)
Time: 07:18:20
(UTC+02:00)

ISS - Visible Passes

Search period start: 27 May 2018 00:00
Search period end: 06 June 2018 00:00
Orbit: 402 x 407 km, 51.6° (Epoch: 27 May)

Date Brightness Start Highest point End Pass type
(mag) Time Alt. Az. Time Alt. Az. Time Alt. Az.
27 May -3.7 00:23:11 10° W 00:26:24 51° SSW 00:26:26 50° SSW visible
27 May -3.9 21:54:29 10° W 21:57:47 87° S 22:01:03 10° E visible
27 May -3.9 23:30:59 10° W 23:34:15 67° SSW 23:35:44 29° ESE visible
28 May -1.5 01:07:47 10° W 01:08:21 13° W 01:08:21 13° W visible
28 May -3.9 22:38:46 10° W 22:42:03 81° S 22:45:05 12° ESE visible
29 May -2.7 00:15:22 10° W 00:17:43 29° SW 00:17:43 29° SW visible
29 May -3.8 21:46:32 10° W 21:49:49 89° SSW 21:53:07 10° E visible
29 May -3.5 23:23:03 10° W 23:26:12 45° SSW 23:27:06 34° SSE visible
30 May -3.8 22:30:47 10° W 22:34:02 61° SSW 22:36:31 16° ESE visible
31 May -1.8 00:07:43 10° W 00:09:08 17° WSW 00:09:08 17° WSW visible
31 May -3.8 21:38:32 10° W 21:41:49 77° SSW 21:45:05 10° ESE visible
31 May -2.7 23:15:11 10° W 23:18:02 28° SSW 23:18:35 26° SSW visible
01 Jun -3.2 22:22:48 10° W 22:25:54 40° SSW 22:28:04 17° SE visible
02 Jun -1.9 23:07:35 10° WSW 23:09:42 16° SW 23:10:11 16° SSW visible
03 Jun -2.3 22:14:54 10° W 22:17:37 24° SSW 22:19:41 14° SSE visible
05 Jun -1.5 22:07:24 10° WSW 22:09:11 14° SW 22:10:57 10° S visible
